Location: Phoenix
(33.4480°N, 112.0730°W)
Time: 04:04:58
(UTC-07:00)

Hubble Space Telescope - Visible Passes

Search period start: 09 August 2022 00:00
Search period end: 19 August 2022 00:00
Orbit: 532 x 535 km, 28.5° (Epoch: 08 August)

Date Brightness Start Highest point End Pass type
(mag) Time Alt. Az. Time Alt. Az. Time Alt. Az.
09 Aug 1.3 20:16:20 10° WSW 20:20:12 40° S 20:22:35 20° ESE visible
09 Aug 3.4 21:57:15 10° WSW 21:57:49 13° WSW 21:57:49 13° WSW visible
10 Aug 1.4 20:04:15 10° WSW 20:08:08 41° S 20:11:08 15° ESE visible
10 Aug 3.1 21:45:15 10° WSW 21:46:22 16° WSW 21:46:22 16° WSW visible
11 Aug 1.4 19:52:10 10° WSW 19:56:03 41° S 19:59:39 12° ESE visible
11 Aug 2.8 21:33:17 10° WSW 21:34:53 19° WSW 21:34:53 19° WSW visible
12 Aug 1.5 19:40:06 10° WSW 19:43:59 40° S 19:47:51 10° ESE visible
12 Aug 2.6 21:21:21 10° WSW 21:23:22 20° SW 21:23:22 20° SW visible
13 Aug 2.6 21:09:27 10° WSW 21:11:52 20° SSW 21:11:52 20° SSW visible
14 Aug 2.7 20:57:38 10° WSW 21:00:22 18° SSW 21:00:22 18° SSW visible
15 Aug 2.8 20:45:56 10° WSW 20:48:18 15° SSW 20:48:53 15° SSW visible
16 Aug 3.1 20:34:28 10° SW 20:36:09 12° SSW 20:37:27 11° S visible
